WetterOnline ( http://www.wetteronline.de )

Wetter aktuell Bad Salzuflen

Aktuelles Wetter: Bad Salzuflen (139m)

6-stündlich | Neueste Meldungen
Ortszeit Temperatur Wetter
Mi, 21.02. 7:00 -3.9° C wolkig
Mi, 21.02. 1:00 -2.3° C wolkenlos
Di, 20.02. 19:00 0.8° C wolkig
Di, 20.02. 13:00 3.5° C wolkenlos
Di, 20.02. 7:00 -2.9° C wolkenlos
Di, 20.02. 1:00 -0.9° C bedeckt
Mo, 19.02. 19:00 1.2° C fast wolkenlos
Mo, 19.02. 13:00 2.8° C bewölkt
Ortszeit Temperatur Wetter
Mi, 21.02. 8:10 -4.2° C wolkenlos
Mi, 21.02. 8:00 -4.0° C leicht bewölkt
Mi, 21.02. 7:50 -4.0° C leicht bewölkt
Mi, 21.02. 7:40 -4.1° C leicht bewölkt
Mi, 21.02. 7:30 -3.9° C fast wolkenlos
Mi, 21.02. 7:20 -3.9° C fast wolkenlos
Mi, 21.02. 7:00 -3.9° C wolkig
Mi, 21.02. 6:30 -4.0° C leicht bewölkt
Mi, 21.02. 6:00 -3.7° C wolkig
Mi, 21.02. 5:30 -3.5° C bewölkt
Mi, 21.02. 5:00 -3.7° C leicht bewölkt
Ortszeit Relative Feuchte Sichtweite
Mi, 21.02. 7:00 89% 2.4 km
Mi, 21.02. 1:00 85% 2.7 km
Di, 20.02. 19:00 70% 5.0 km
Di, 20.02. 13:00 55% 10 km
Di, 20.02. 7:00 90% 4.3 km
Di, 20.02. 1:00 82% 7 km
Mo, 19.02. 19:00 72% 8 km
Mo, 19.02. 13:00 65% 10 km
Ortszeit Relative Feuchte Sichtweite
Mi, 21.02. 8:10 89% -
Mi, 21.02. 8:00 89% 2.8 km
Mi, 21.02. 7:50 89% -
Mi, 21.02. 7:40 89% -
Mi, 21.02. 7:30 89% 2.7 km
Mi, 21.02. 7:20 89% -
Mi, 21.02. 7:00 89% 2.4 km
Mi, 21.02. 6:30 91% 1.9 km
Mi, 21.02. 6:00 91% 1.9 km
Mi, 21.02. 5:30 89% 2.1 km
Mi, 21.02. 5:00 89% 1.7 km
Ortszeit Niederschlagsmenge Niederschlagsart
Mi, 21.02. 7:00 0.0 l/m2 in 12 Std. -
Mi, 21.02. 1:00 0.0 l/m2 in 6 Std. -
Di, 20.02. 19:00 0.0 l/m2 in 12 Std. -
Di, 20.02. 13:00 0.0 l/m2 in 6 Std. -
Di, 20.02. 7:00 0.0 l/m2 in 12 Std. -
Di, 20.02. 1:00 0.0 l/m2 in 6 Std. -
Mo, 19.02. 19:00 0.0 l/m2 in 12 Std. -
Mo, 19.02. 13:00 0.0 l/m2 in 6 Std. -
Ortszeit Niederschlagsmenge Niederschlagsart
Mi, 21.02. 8:10 keine Meldung -
Mi, 21.02. 8:00 0.0 l/m2 in 1 Std. -
Mi, 21.02. 7:50 keine Meldung -
Mi, 21.02. 7:40 keine Meldung -
Mi, 21.02. 7:30 0.0 l/m2 in 1 Std. -
Mi, 21.02. 7:20 keine Meldung -
Mi, 21.02. 7:00 0.0 l/m2 in 1 Std. -
Mi, 21.02. 6:30 0.0 l/m2 in 1 Std. -
Mi, 21.02. 6:00 0.0 l/m2 in 1 Std. -
Mi, 21.02. 5:30 0.0 l/m2 in 1 Std. -
Mi, 21.02. 5:00 0.0 l/m2 in 1 Std. -
Ortszeit Stärke Spitze Richtung
km/h Bft. km/h Grad Sektor
Mi, 21.02. 7:00 6 1 11 20° N
Mi, 21.02. 1:00 7 2 14 40° NO
Di, 20.02. 19:00 4 1 25 60° NO
Di, 20.02. 13:00 9 2 19 60° NO
Di, 20.02. 7:00 0 0 7 - -
Di, 20.02. 1:00 6 1 7 30° NO
Mo, 19.02. 19:00 4 1 11 70° O
Mo, 19.02. 13:00 6 1 17 170° S
Ortszeit Stärke Spitze Richtung
km/h Bft. km/h Grad Sektor
Mi, 21.02. 8:10 4 1 - 50° NO
Mi, 21.02. 8:00 7 2 14 360° N
Mi, 21.02. 7:50 7 2 - 360° N
Mi, 21.02. 7:40 7 2 - 20° N
Mi, 21.02. 7:30 7 2 11 20° N
Mi, 21.02. 7:20 7 2 - 20° N
Mi, 21.02. 7:00 6 1 9 20° N
Mi, 21.02. 6:30 4 1 7 50° NO
Mi, 21.02. 6:00 4 1 7 40° NO
Mi, 21.02. 5:30 6 1 7 40° NO
Mi, 21.02. 5:00 6 1 11 50° NO
Ortszeit Untergrenze Bedeckung Gattung
total tief tief mittel hoch
Mi, 21.02. 7:00 6900 m 7/8 4/8 - - -
Mi, 21.02. 1:00 - 0/8 0/8 - - -
Di, 20.02. 19:00 1020 m 6/8 6/8 - - -
Di, 20.02. 13:00 - 0/8 0/8 - - -
Di, 20.02. 7:00 2700 m 0/8 0/8 - - -
Di, 20.02. 1:00 2700 m 8/8 8/8 - - -
Mo, 19.02. 19:00 2700 m 1/8 1/8 - - -
Mo, 19.02. 13:00 2700 m 8/8 4/8 - - -
Ortszeit Bedeckungsgrad in Achtel und Wolkenuntergrenze
Mi, 21.02. 8:10 keine Wolken
Mi, 21.02. 8:00 1(2400m) 4(6600m)
Mi, 21.02. 7:50 1(2400m) 4(6600m)
Mi, 21.02. 7:40 1(2100m) 4(6600m)
Mi, 21.02. 7:30 1(2700m) 4(6600m)
Mi, 21.02. 7:20 1(2700m)
Mi, 21.02. 7:00 7(6900m) 4(6900m)
Mi, 21.02. 6:30 4(7200m) 5(7800m) 6(8400m)
Mi, 21.02. 6:00 8(7200m) 8(8100m)
Mi, 21.02. 5:30 7(6900m) 8(7800m) 8(8400m)
Mi, 21.02. 5:00 1(2400m) 6(8100m) 6(8700m)
Ortszeit Luftdruck NN (hPa) Tendenz (hPa in 3 Std.)
Mi, 21.02. 7:00 1026 + 0,5
Mi, 21.02. 1:00 1025 + 1,6
Di, 20.02. 19:00 1021 + 1,4
Di, 20.02. 13:00 1019 + 0,1
Di, 20.02. 7:00 1019 + 0,3
Di, 20.02. 1:00 1019 0,0
Mo, 19.02. 19:00 1019 - 0,3
Mo, 19.02. 13:00 1020 - 1,2
Ortszeit Luftdruck NN (hPa) Tendenz (hPa in 3 Std.)
Mi, 21.02. 8:10 1027 keine Meldung
Mi, 21.02. 8:00 1027 + 1,0
Mi, 21.02. 7:50 1027 keine Meldung
Mi, 21.02. 7:40 1026 keine Meldung
Mi, 21.02. 7:30 1026 + 0,5
Mi, 21.02. 7:20 1026 keine Meldung
Mi, 21.02. 7:00 1026 + 0,5
Mi, 21.02. 6:30 1026 + 0,7
Mi, 21.02. 6:00 1026 + 0,8
Mi, 21.02. 5:30 1026 + 0,6
Mi, 21.02. 5:00 1026 + 0,5
Ortszeit Schneehöhe (cm)
Mi, 21.02. 7:00 0
Mi, 21.02. 1:00 0
Di, 20.02. 19:00 0
Di, 20.02. 13:00 0
Di, 20.02. 7:00 0
Di, 20.02. 1:00 0
Mo, 19.02. 19:00 0
Mo, 19.02. 13:00 0
Ortszeit Schneehöhe (cm)
Mi, 21.02. 8:10 0
Mi, 21.02. 8:00 0
Mi, 21.02. 7:50 0
Mi, 21.02. 7:40 0
Mi, 21.02. 7:30 0
Mi, 21.02. 7:20 0
Mi, 21.02. 7:00 0
Mi, 21.02. 6:30 0
Mi, 21.02. 6:00 0
Mi, 21.02. 5:30 0
Mi, 21.02. 5:00 0
Link zu dieser Seite / Seite empfehlen

Das Wetter in ...